Weather History for PHNL - April, 2014

Change the Weather History Date:

Tuesday, April 15, 2014

  Actual Average Record
Temperature  
Mean Temperature 77 °F 76 °F  
Max Temperature 83 °F 83 °F 87 °F (1996)
Min Temperature 71 °F 69 °F 63 °F (1959)
Degree Days  
Heating Degree Days 0 0  
Month to date heating degree days 0 0  
Since 1 July heating degree days 0 0  
Cooling Degree Days 12 11  
Month to date cooling degree days 173 165  
Year to date cooling degree days 1001 940  
Growing Degree Days 26 (Base 50)    
Moisture  
Dew Point 61 °F    
Average Humidity 58    
Maximum Humidity 68    
Minimum Humidity 47    
Precipitation  
Precipitation T in 0.01 in 1.51 in (1963)
Month to date precipitation 0.16 0.41  
Year to date precipitation 6.45 6.73  
Snow  
Snow 0.00 in - - ()
Month to date snowfall 0.0  
Since 1 July snowfall 0.0  
Snow Depth 0.00 in    
Sea Level Pressure  
Sea Level Pressure 30.09 in    
Wind  
Wind Speed 11 mph (NE)    
Max Wind Speed 22 mph    
Max Gust Speed 31 mph    
Visibility 10 miles    
Events Rain    
T = Trace of Precipitation, MM = Missing Value Source: NWS Daily Summary

Daily Weather History Graph

Daily Weather History Graph

Search for Another Location

Airport or City:

Trip Planner

Search our weather history database for the weather conditions in past years. The results will help you decide how hot, cold, wet, or windy it might be!

Date:

Astronomy

Apr. 15, 2014 Rise Set
Actual Time 6:12 AM HST 6:51 PM HST
Civil Twilight 5:49 AM HST 7:13 PM HST
Nautical Twilight 5:23 AM HST 7:40 PM HST
Astronomical Twilight 4:56 AM HST 8:07 PM HST
Moon 7:37 PM HST (4/15) 6:30 AM HST (4/15)
Length of Visible Light 13h 24m
Length of Day
12h 38m
Full, 100% of the Moon is Illuminated
Apr 15
Full
Apr 21
Last Quarter
Apr 28
New
May 6
First Quarter
May 14
Full

Hourly Weather History & Observations

Time (HST) Temp. Heat Index Dew Point Humidity Pressure Visibility Wind Dir Wind Speed Gust Speed Precip Events Conditions
12:53 AM 73.0 °F - 59.0 °F 61% 30.10 in 10.0 mi SW 6.9 mph - N/A   Mostly Cloudy
1:53 AM 73.0 °F - 59.0 °F 61% 30.09 in 10.0 mi Calm Calm - N/A   Scattered Clouds
2:53 AM 73.0 °F - 60.1 °F 64% 30.07 in 10.0 mi NNE 10.4 mph 19.6 mph N/A   Scattered Clouds
3:53 AM 72.0 °F - 59.0 °F 64% 30.07 in 10.0 mi Variable 5.8 mph - 0.00 in   Scattered Clouds
4:53 AM 72.0 °F - 61.0 °F 68% 30.06 in 10.0 mi NE 3.5 mph - 0.00 in Rain Light Rain
5:53 AM 72.0 °F - 60.1 °F 66% 30.07 in 10.0 mi East 6.9 mph - 0.00 in Rain Light Rain
6:53 AM 73.0 °F - 60.1 °F 64% 30.09 in 10.0 mi ESE 15.0 mph 20.7 mph 0.00 in   Mostly Cloudy
7:53 AM 75.0 °F - 59.0 °F 57% 30.12 in 10.0 mi ENE 11.5 mph - N/A   Scattered Clouds
8:53 AM 77.0 °F - 59.0 °F 54% 30.12 in 10.0 mi NE 15.0 mph 21.9 mph N/A   Scattered Clouds
9:53 AM 79.0 °F - 59.0 °F 50% 30.12 in 10.0 mi NE 13.8 mph 25.3 mph N/A   Scattered Clouds
10:53 AM 78.1 °F - 59.0 °F 52% 30.11 in 10.0 mi NE 16.1 mph 23.0 mph N/A   Mostly Cloudy
11:53 AM 80.1 °F 80.9 °F 60.1 °F 50% 30.10 in 10.0 mi ENE 18.4 mph 23.0 mph N/A   Mostly Cloudy
12:53 PM 79.0 °F - 62.1 °F 56% 30.09 in 10.0 mi ENE 15.0 mph 25.3 mph 0.00 in   Mostly Cloudy
1:53 PM 82.0 °F 82.4 °F 60.1 °F 47% 30.05 in 10.0 mi ENE 16.1 mph 31.1 mph N/A   Scattered Clouds
2:53 PM 81.0 °F 81.6 °F 60.1 °F 49% 30.04 in 10.0 mi NE 21.9 mph 28.8 mph N/A   Scattered Clouds
3:53 PM 80.1 °F 81.1 °F 61.0 °F 52% 30.04 in 10.0 mi NNE 17.3 mph 23.0 mph N/A   Mostly Cloudy
4:53 PM 78.1 °F - 61.0 °F 56% 30.04 in 10.0 mi ENE 13.8 mph 20.7 mph 0.00 in   Scattered Clouds
5:53 PM 77.0 °F - 62.1 °F 60% 30.04 in 10.0 mi NE 12.7 mph - 0.00 in   Mostly Cloudy
6:53 PM 73.9 °F - 62.1 °F 66% 30.07 in 10.0 mi NE 11.5 mph - 0.00 in   Mostly Cloudy
7:53 PM 72.0 °F - 66.0 °F 81% 30.09 in 9.0 mi East 8.1 mph - 0.00 in   Mostly Cloudy
8:53 PM 73.0 °F - 64.9 °F 76% 30.11 in 10.0 mi NE 11.5 mph 16.1 mph 0.00 in   Mostly Cloudy
9:53 PM 73.9 °F - 63.0 °F 68% 30.12 in 10.0 mi NE 10.4 mph - 0.00 in Rain Light Rain
10:53 PM 73.0 °F - 63.0 °F 71% 30.13 in 10.0 mi NE 15.0 mph 24.2 mph 0.00 in Rain Light Rain
11:53 PM 73.0 °F - 63.0 °F 71% 30.12 in 10.0 mi NE 12.7 mph - 0.00 in   Mostly Cloudy